Terminal Aerodrome Forecast
Issued by NWS Bismarck, ND

Home | Current Version | Previous Version | Text Only | Print | Product List | Glossary Off
Versions: 1 2 3 4 5 6 7 8 9 10 11 12 13 14 15 16 17 18 19

639
FTUS43 KBIS 271012 AAC
TAFISN
TAF AMD
KISN 271012Z 2710/2806 07005KT P6SM SCT050 BKN120
     FM271200 03006KT 5SM SHRA VCTS BKN050 OVC080CB
     FM271800 12008KT P6SM VCSH BKN050 OVC100=

USA.gov is the U.S. government's official web portal to all federal, state and local government web resources and services.